This is the latest recevied weather packets stored in our database for station/object KI6SYE. If no packets are shown the sender has not sent any weather packets the latest 10 day(s).
| Time | Temp. | Humidity | Pressure | Rain* | Wind** | Luminosity | Snow |
|---|---|---|---|---|---|---|---|
| 1788638056 | 23.89° C | 77% | 1013.8 hPa | 0 mm | - | 731 W/m² | - |
| 1788637752 | 23.33° C | 80% | 1013.7 hPa | 0 mm | - | 732 W/m² | - |
| 1788637446 | 23.33° C | 80% | 1013.8 hPa | 0 mm | - | 732 W/m² | - |
| 1788637145 | 23.33° C | 80% | 1014 hPa | 0 mm | - | 733 W/m² | - |
| 1788636840 | 23.89° C | 79% | 1014.1 hPa | 0 mm | - | 732 W/m² | - |
| 1788636536 | 23.89° C | 77% | 1013.8 hPa | 0 mm | - | 730 W/m² | - |
| 1788636231 | 23.89° C | 79% | 1014 hPa | 0 mm | - | 729 W/m² | - |
| 1788635931 | 23.89° C | 78% | 1013.8 hPa | 0 mm | - | 730 W/m² | - |
| 1788635630 | 23.89° C | 77% | 1014 hPa | 0 mm | - | 727 W/m² | - |
| 1788635329 | 23.33° C | 78% | 1014 hPa | 0 mm | - | 724 W/m² | - |
| 1788635022 | 23.33° C | 79% | 1014.1 hPa | 0 mm | - | 721 W/m² | - |
| 1788634721 | 23.33° C | 78% | 1014.1 hPa | 0 mm | - | 716 W/m² | - |
| 1788634417 | 23.33° C | 78% | 1014.2 hPa | 0 mm | - | 714 W/m² | - |
| 1788634115 | 23.33° C | 78% | 1014.3 hPa | 0 mm | - | 710 W/m² | - |
| 1788633815 | 23.33° C | 79% | 1014.4 hPa | 0 mm | - | 704 W/m² | - |
| 1788633513 | 22.78° C | 80% | 1014.5 hPa | 0 mm | - | 698 W/m² | - |
| 1788633210 | 22.78° C | 79% | 1014.5 hPa | 0 mm | - | 693 W/m² | - |
| 1788632910 | 22.78° C | 79% | 1014.5 hPa | 0 mm | - | 686 W/m² | - |
| 1788632609 | 23.33° C | 79% | 1014.5 hPa | 0 mm | - | 679 W/m² | - |
| 1788632299 | 23.33° C | 77% | 1014.5 hPa | 0 mm | - | 673 W/m² | - |
| 1788631998 | 23.33° C | 78% | 1014.4 hPa | 0 mm | - | 665 W/m² | - |
| 1788631697 | 22.78° C | 78% | 1014.4 hPa | 0 mm | - | 658 W/m² | - |
| 1788631393 | 22.78° C | 79% | 1014.4 hPa | 0 mm | - | 648 W/m² | - |
| 1788631088 | 23.33° C | 78% | 1014.7 hPa | 0 mm | - | 639 W/m² | - |
| 1788630782 | 23.33° C | 77% | 1014.5 hPa | 0 mm | - | 631 W/m² | - |
* Rain latest hour (hover to see other rain measurements)
** Current wind speed in m/s (hover to see current wind gust speed)